METEOR M2

导读

METEOR M2(流星-M2)是独联体(CIS)区域主导推进的新一代气象卫星,于2014年7月8日发射入轨,隶属于俄罗斯“流星”系列气象卫星工程。卫星运行于近地太阳同步轨道,搭载可见光红外相机、多通道扫描辐射计等多种探测载荷,可常态化获取全球云分布、温湿度廓线、辐射参数等气象观测数据,为天气预报、气候监测和空间环境研究提供关键支撑,承担着延续区域气象观测能力、服务防灾减灾的重要使命。

基本信息
目录编号:
40069
目录名称:
METEOR M2
国际标识:
2014-037A
轨道中心:
EARTH
卫星名称:
METEOR M2
卫星全名:
--
卫星状态:
在轨 (已飞行4449 天)
发射日期:
2014-07-08 UTC
国别 :
俄罗斯(独联体) (CIS)
星等 :
--
该卫星已列入 空间交会检测服务 Space Conjunction Data Service (SCDS) ,当前飞行风险评估等级: 无高风险
轨道信息
数据来源 国际轨道数据 AOE轨道数据
星历时间 2026-09-12T04:46:18+0800
6小时前
查看轨道信息
2026-09-10T08:00:00+0800
2天前
查看轨道信息
半长轴 7198.483km 7198.467km
偏心率 0.000639 0.0006155
轨道倾角 98.522° 98.521°
近地点辐角 135.252° 138.650°
升交点赤经 227.577° 225.776°
平近点角 224.917° 40.654°
近地点 815.746km 815.899km
远地点 824.946km 824.761km
周期 101.303分钟 101.302分钟
每日圈数 14.214818 14.214867
详细信息
使用方式:
暂无
2D轨道图
3D轨道图
轨道高度分析图
轨道倾角分析图
轨道综合分析图
查看轨道综合分析图
与全量物体交会距离演化趋势
与全量物体交会风险概率演化趋势